Regional Weather Roundup
Issued by NWS Newport/Morehead, NC

Current Version | Previous Version | Graphics & Text | Print | Product List | Glossary Off
Versions: 1 2 3 4 5 6 7 8 9 10 11 12 13 14 15 16 17 18 19 20 21 22 23 24 25 26 27 28 29 30 31 32 33 34 35 36 37 38 39 40 41 42 43 44 45 46 47 48 49 50

000
ASUS42 KMHX 161513
RWRMHX
WEATHER ROUNDUP FOR EASTERN NORTH CAROLINA
NATIONAL WEATHER SERVICE NEWPORT/MOREHEAD CITY NC
1000 AM EST TUE JAN 16 2018

NOTE: "FAIR" INDICATES FEW OR NO CLOUDS BELOW 12,000 FEET
WITH NO SIGNIFICANT WEATHER AND/OR OBSTRUCTIONS TO VISIBILITY

NCZ015>017-031-032-045>047-102-103-161600-
NORTH COAST

CITY           SKY/WX    TMP DP  RH WIND       PRES   REMARKS
EDENTON        FOG       33  32  99 SE3       30.50S VSB 1/2
ELIZABETH CITY FOG       33  32  96 NW3       30.49S VSB 1/4
KITTY HAWK     CLOUDY   N/A N/A N/A MISG      30.47R FOG
MANTEO         CLOUDY    33  33 100 N8        30.49R FOG

$$

NCZ045>047-081-094-103-104-161600-
CENTRAL COAST

CITY           SKY/WX    TMP DP  RH WIND       PRES   REMARKS
FRISCO         NOT AVBL

$$

NCZ095-097-098-100-101-161600-
SOUTHERN COAST

CITY           SKY/WX    TMP DP  RH WIND       PRES   REMARKS
BEAUFORT       FAIR      41  35  79 N10       30.48S
CEDAR ISLAND   NOT AVBL
JACKSONVILLE   FAIR      38  32  79 CALM      30.49R
PINEY ISLAND   NOT AVBL
WILMINGTON     FAIR      40  32  73 CALM      30.49S


$$

NCZ011>013-027>030-043-044-078>080-089-090>093-098-161600-
COASTAL PLAIN

CITY           SKY/WX    TMP DP  RH WIND       PRES   REMARKS
AHOSKIE        CLOUDY    28  28 100 CALM      30.51R FOG
CLINTON        FAIR      37  27  67 E3        30.50R
ELIZABETHTOWN  NOT AVBL
GOLDSBORO      FAIR      37  26  64 E3        30.48R
GREENVILLE     FAIR      36  27  69 CALM      30.49R
HAVELOCK       SUNNY     39  32  76 N5        30.49S
KENANSVILLE    FAIR      36  27  69 NE5       30.50R
KINSTON        FAIR      36  28  75 CALM      30.50R
NEW BERN       FAIR      37  30  75 N5        30.50S
RICHLANDS      FAIR      35  30  82 VRB3      30.50R
ROCKY MOUNT    FAIR      34  27  75 CALM      30.49R
WASHINGTON     FAIR      35  30  82 E3        30.49S
WHITEVILLE     FAIR      37  25  62 NE3       30.48F

$$

AMZ130-135-150-152-154-156-158-170-250-252-270-ANZ085-086-088-633-658-670-161600-
MARINE OBSERVATIONS

STATION/POSITION TIME  TEMP    WIND        PRES    WAVE   SWELL
                       AIR SEA DIR/SP/G            HT/PER HT/PER
                 (UTC) (F)     (DEG/KT/KT) (MB)    (FT/S) (FT/S)
CHESAPEAKE LIGHT NOT AVBL
64 E VA BEACH    1450   45 65  330/ 14/ 17 1031.1    8/10   7/10
DUCK             1448   32 38  330/ 11/ 13 1031.5
2 E DUCK         1430      39                N/A     5/11   2/11
OREGON INLET     1442   35 41  330/ 11/ 14 1031.9
13E OREGON INLT  1448      45                N/A     7/10   7/10
HATTERAS CG      1448   35 46  350/ 13/ 15 1031.2
DIAMOND BUOY     1500   43 68  340/ 17/ 21 1031.1
CAPE LOOKOUT     1500          340/  9/ 11 1031.9
BEAUFORT LAB     1448   38 45  350/  9/ 12 1031.9
30 SE NEW RVR IN 1408   44 59  360/ 14/ 17 1031.5
30 SE NEW RVR IN 1430      59                N/A     5/10   2/11
27 SE WRIGHTSVLE 1408   44 62  360/ 12/ 17 1031.3
5 SE WRIGHTSVLE  1408   38 47  360/ 10/ 12 1031.6
225 S CAPE HAT   1450   66 70   30/  8/ 12 1027.8    9/11   8/11
41 SE CHARLESTON 1500   50 70   20/ 10/ 14 1031.7

$$




USA.gov is the U.S. government's official web portal to all federal, state and local government web resources and services.